Voltar ao catálogo

ATLAS 5 CENTAUR DEB

AtivoHEO
NORAD 49348·DEBRIS·🇺🇸 United States

Lançado Oct 17, 2018 de Cape Canaveral Space Force Station

Loading…

Próximas Passagens (próximas 24 horas)

TLE

ObsoletoSource: Space-Track

Época: Aug 15, 2026, 11:15 UTC

1 49348U 18079EZ  26227.46895759 -.00000125  00000-0  00000-0 0  9994
2 49348  13.2278 354.5501 4410335  48.1254 341.8787  2.01939869 36600

Acompanhe ATLAS 5 CENTAUR DEB em tempo real com AllMySat

Download on the App Store